カタログに戻る

COSMOS 249 DEB

運用中LEO
NORAD 14412·DEBRIS·🇷🇺 Russia

打ち上げ Oct 20, 1968 から Baikonur Cosmodrome

Loading…

次のパス (今後24時間)

TLE

最新Source: Space-Track

元期: Sep 14, 2026, 20:46 UTC

1 14412U 68091CN  26257.86536515  .00001074  00000-0  13943-2 0  9991
2 14412  62.2926 213.8932 0750686 351.1864   7.6526 12.84366978 98691

AllMySatでCOSMOS 249 DEBをリアルタイム追跡

Download on the App Store